Regional Weather Roundup
Issued by NWS

Home | Current Version | Previous Version | Graphics & Text | Print | Product List | Glossary On
Versions: 1 2 3 4 5 6 7 8 9 10 11 12 13 14 15 16 17 18 19 20 21 22 23 24 25 26 27 28 29 30 31 32 33 34 35 36 37 38 39 40 41 42 43 44 45 46 47 48 49 50
000
ASUS45 KABQ 291810
RWRNM
NEW MEXICO REGIONAL WEATHER ROUNDUP
NATIONAL WEATHER SERVICE ALBUQUERQUE NM
1200 PM MDT WED MAR 29 2017

NOTE: "FAIR" MEANS FEW OR NO CLOUDS BELOW 12,000 FEET AGL WITH NO
       SIGNIFICANT WEATHER OR OBSTRUCTIONS TO VISION.

      THIS PRODUCT IS RELEASED AS TWO VERSIONS.  ONE VERSION NEAR
      THE TOP OF THE HOUR CONTAINING PRELIMINARY DATA FROM ALBUQUERQUE
      AND OTHER STATIONS.  A FINAL VERSION WITH ADDITIONAL DATA IS
      ISSUED ABOUT 10 MINUTES AFTER THE HOUR.

NMZ501-503-504-510>518-291900-
NORTHWEST PLATEAU/NORTHCENTRAL MOUNTAINS

CITY           SKY/WX    TMP DP  RH WIND       PRES   REMARKS
FARMINGTON     FAIR      57  26  30 W10       30.00F
6HR MIN TEMP:  36; 6HR MAX TEMP:  57;

LOS ALAMOS     CLOUDY    44  31  60 N16G28    30.03F
SANTA FE       FAIR      48  33  56 N22G33    30.00S
6HR MIN TEMP:  36; 6HR MAX TEMP:  49;

TAOS             N/A     46  27  46 N22G30    30.01F
ANGEL FIRE     PTSUNNY   40  27  59 N17       30.00F WCI  32

$$
NMZ402-403-502-505>509-291900-
WESTCENTRAL MOUNTAINS/SOUTHWEST MOUNTAINS

CITY           SKY/WX    TMP DP  RH WIND       PRES   REMARKS
GALLUP         FAIR      52  29  41 NE12      30.07S
6HR MIN TEMP:  34; 6HR MAX TEMP:  52;

GRANTS         PTSUNNY   49  33  55 N9        30.08F
SILVER CITY    FAIR      56  30  37 NW9G18    30.04S

$$
NMZ407-409-411-412-291900-
SOUTHERN DESERTS

CITY           SKY/WX    TMP DP  RH WIND       PRES   REMARKS
DEMING         FAIR      62  34  35 N14G21    30.01S
6HR MIN TEMP:  45; 6HR MAX TEMP:  62;

LAS CRUCES     FAIR      60  34  37 N14G21    30.00F
HOLLOMAN AFB   PTSUNNY   56  39  52 N13G18    30.02S
ALAMOGORDO       N/A    N/A N/A N/A MISG        N/A
T OR C         FAIR      56  38  50 NE7       30.01F
6HR MIN TEMP:  43; 6HR MAX TEMP:  56; 6HR PCP: TRACE;


$$
NMZ519>523-291900-
CENTRAL VALLEYS/CENTRAL HIGHLANDS

CITY           SKY/WX    TMP DP  RH WIND       PRES   REMARKS
ALBUQUERQUE    PTSUNNY   55  37  50 VRB6      30.01F
6HR MIN TEMP:  42; 6HR MAX TEMP:  55; 6HR PCP: TRACE;

DOUBLE EAGLE   PTSUNNY   52  39  62 NW17G28   30.02S
MORIARTY ARPT  CLOUDY    52  36  54 NW21G33   30.00F
6HR MIN TEMP:  37; 6HR MAX TEMP:  52;

CLINES CORNERS PTSUNNY   47  30  51 N9        30.00F
6HR MIN TEMP:  33; 6HR MAX TEMP:  47; 6HR PCP:  0.01;

BELEN          CLOUDY    53  39  60 NW14      30.02F
6HR MIN TEMP:  40; 6HR MAX TEMP:  53;

SOCORRO        CLOUDY    55  38  52 N10G18    30.02S
6HR MIN TEMP:  42; 6HR MAX TEMP:  55;


$$
NMZ524>526-539-540-291900-
SOUTHCENTRAL MOUNTAINS

CITY           SKY/WX    TMP DP  RH WIND       PRES   REMARKS
RUIDOSO        CLOUDY    37  32  81 N9        30.07R WCI  31

$$
NMZ527>531-291900-
NORTHEAST HIGHLANDS/NORTHEAST PLAINS

CITY           SKY/WX    TMP DP  RH WIND       PRES   REMARKS
LAS VEGAS      FAIR      49  28  44 N21G29    29.98R
6HR MIN TEMP:  33; 6HR MAX TEMP:  50;

RATON          FAIR      44  30  57 N35G49    29.94S
6HR MIN TEMP:  35; 6HR MAX TEMP:  44; 6HR PCP: TRACE;

CLAYTON        CLOUDY    42  37  82 N26G41    29.92R
6HR MIN TEMP:  36; 6HR MAX TEMP:  42; 6HR PCP:  0.01;


$$
NMZ532>537-291900-
EASTCENTRAL PLAINS

CITY           SKY/WX    TMP DP  RH WIND       PRES   REMARKS
TUCUMCARI      RAIN      45  41  86 N13G21    29.96R FOG
6HR MIN TEMP:  40; 6HR MAX TEMP:  45;

CANNON AFB     CLOUDY    45  45 100 N32G41    29.91S
6HR MIN TEMP:  33; 6HR MAX TEMP:  45; 6HR PCP:  0.31;

CLOVIS AIRPORT CLOUDY    45  37  76 N29G35    29.92R

$$
NMZ028-029-538-291900-
SOUTHEAST PLAINS

CITY           SKY/WX    TMP DP  RH WIND       PRES   REMARKS
ROSWELL        LGT RAIN  49  41  74 N22G36      N/A
6HR MIN TEMP:  45; 6HR MAX TEMP:  49; 6HR PCP:  0.02;

ARTESIA        LGT RAIN  50  41  71 N25       30.01R
CARLSBAD       CLOUDY    54  38  54 N28G36    29.99R
6HR MIN TEMP:  47; 6HR MAX TEMP:  55;

HOBBS          PTSUNNY   50  36  57 NW24G35   29.93R


$$



USA.gov is the U.S. government's official web portal to all federal, state and local government web resources and services.